Simultaneous Nadir Overpasses (SNOs) Predictions

Prediction of SNOs between GOES-14 and AQUA Satellite Orbit:

Table of predicted SNOs for the next 14.0 days since TLE Epoch: 12/26/2020
Index Date Time (GOES-14) GOES-14 Lat,Lon AQUA Lat,Lon Distance(km) Time Diff (sec)
1 12/26/2020 08:41:45 -0.08,-104.37 0.31,-106.20 208.45 80
2 12/28/2020 08:26:54 -0.07,-104.37 -0.32,-103.25 127.48 80
3 12/28/2020 20:48:18 0.08,-104.08 -0.82,-108.43 494.89 80
4 12/30/2020 08:14:42 -0.06,-104.36 -0.90,-100.28 463.15 80
5 12/30/2020 20:36:06 0.07,-104.07 -0.24,-105.47 159.10 80
6 01/01/2021 20:26:35 0.07,-104.07 0.41,-102.52 176.50 80
7 01/02/2021 08:46:39 -0.08,-104.36 0.64,-107.68 378.07 8
8 01/04/2021 08:35:40 -0.08,-104.35 -0.02,-104.73 42.50 80
9 01/06/2021 08:20:48 -0.07,-104.35 -0.61,-101.76 293.32 80
10 01/06/2021 20:42:12 0.08,-104.05 -0.52,-106.95 329.61 80
11 01/08/2021 20:32:40 0.07,-104.04 0.09,-103.99 6.22 80
